PEGASUS DEB, 40242

Orbit data source: Space-Track

PEGASUS DEB, 40242 is space debris in LEO originally from a launch on Thu, 19 May 1994 UTC launched from the Air Force Western Test Range (AFWTR). Debris objects in space refer to the collection of defunct objects orbiting the Earth. Examples of debris include non-operational satellites, rocket bodies, and fragments generated from explosions, collisions, or faulty payload assembly.

Loading next visibility...
Identifier
40242, 1994-029AGJ
Orbit
LEO
Country
Flag of USUS
Related business
Manufacturer
Unknown
Mission
Spacecraft
Bus & Motor
Unknown
Mass
Unknown
Launch date (UTC)
1994-05-19 (32 years ago)
Launch vehicle
Unknown
Launch site
Air Force Western Test Range (AFWTR)
Object type
Payload
Rocket body
Debris
Shape & HBR
Unknown shape, 0.1 m
Radar Cross Section
Small (<0.1 m²)

Expand to show TLE details & history
Last TLE update: 3 days ago

TLE from 3 days ago
0 PEGASUS DEB
1 40242U 94029AGJ 26170.08208808  .00006558  00000-0  13241-2 0  9993
2 40242  81.8772 303.6549 0318916 216.4677 141.4413 14.33823066602842
Epoch: 2026-06-19T01:58Z
TLE epoch observation values (Epoch: 2026-06-19T01:58:12.410Z)
Latitude
0.00002°
Longitude
6.78702°
Altitude
963.18 km
Speed
7.276 km/s
True Right ascension
20h 14m 37s
True Declination
0° 00' 00"
Sunlit
Object was in full shadow at epoch
Visualization orbit readout
Latitude
Unknown
Longitude
Unknown
Altitude
Unknown
Speed
Unknown
Apparent Right ascension
Unknown
Apparent Declination
Unknown
Sunlit
N/A
Visualization observer readout
Local Sidereal Time
21:42:22
Azimuth
Unknown
Elevation
Unknown
Doppler factor
Unknown
Orbital elements
Apogee altitude
1,004.248 km
Perigee altitude
547.929 km
Semi-major axis
7,154.226 km
Eccentricity
0.03189
Inclination
81.8772°
RAAN
303.6549°
Arg. of periapsis
216.4677°
True anomaly
143.64973°
Mean anomaly
141.4413°
Eccentric anomaly
142.55234°
Mean motion
3.58673 °/min
Orbital period
100.37 mins
BSTAR
0.0013241
Loading maneuver chart data...
Computing Atmospheric mass density...

Documentation

Showing up to 5 results
|